Lid_Strength_Index
1 0 0 1 1 2 2 2 2 2 2 2 3 3 3 3 3 3 3 3 3 3 3 3 2 2 2 5 6 1 -1 -0 1 2 4 4 5 5 6 6 5 6 5 5 5 5 5
1 0 0 1 1 2 2 2 2 2 3 3 3 3 3 3 3 3 3 3 3 3 3 3 2 2 2 7 2 2 1 2 2 3 3 3 4 4 5 5 6 5 6 6 5 5 5
0 1 1 1 2 2 2 2 2 2 3 3 3 3 3 3 3 3 3 3 3 3 3 2 2 1 4 5 2 1 1 2 2 2 4 2 2 4 4 5 4 5 7 6 5 5 6
1 1 2 2 2 2 2 2 2 2 3 3 3 3 3 3 3 3 3 3 3 3 3 2 2 1 5 2 1 1 1 2 1 1 2 2 2 3 4 3 5 6 6 8 6 5 5
1 2 2 2 2 2 2 2 3 2 2 3 3 3 3 3 3 3 3 3 3 2 2 2 1 2 6 2 3 2 1 3 2 2 1 1 2 4 4 6 7 7 9 8 7 5 6
2 2 2 2 2 3 3 3 3 3 3 3 3 3 3 3 3 3 3 3 2 2 1 1 2 4 4 5 3 2 1 2 3 3 3 3 4 6 6 7 11 10 9 8 8 6 6
2 2 2 3 3 3 3 3 3 3 3 3 3 4 3 3 3 3 3 1 3 3 2 5 5 5 5 3 2 3 2 3 2 3 6 4 7 8 7 6 7 7 8 9 7 6 7
2 2 3 3 3 3 3 3 3 3 3 4 4 4 3 3 3 3 2 3 3 2 5 3 4 4 3 3 5 4 2 4 4 6 5 6 8 6 6 6 7 7 9 9 7 6 7
2 3 3 3 3 3 3 4 4 4 4 4 4 4 4 3 4 3 2 3 1 1 5 5 4 4 5 3 5 5 3 4 5 6 6 8 7 5 6 7 8 8 9 9 9 7 7
3 3 3 4 4 3 4 3 4 4 4 4 5 4 4 4 5 2 2 1 1 1 8 7 6 5 4 4 6 3 3 4 5 7 6 7 5 6 7 8 7 10 7 8 8 9 12
3 3 3 4 4 4 4 4 4 4 4 5 5 4 4 5 1 2 2 0 0 1 15 7 6 3 4 5 5 4 3 4 6 7 6 7 7 7 8 8 7 9 7 8 8 9 10
3 3 3 4 4 5 5 5 5 4 5 4 4 4 4 2 1 1 1 0 1 10 14 9 6 6 6 5 5 4 4 3 3 6 6 6 5 6 6 6 6 6 7 8 8 9 13
3 4 4 4 4 5 5 5 5 5 5 4 4 4 4 1 2 1 1 2 9 12 7 8 8 6 6 6 6 6 6 7 8 10 9 7 7 6 5 8 6 6 9 14 13 15 16
4 4 4 4 4 4 5 5 5 5 5 5 5 5 2 0 -0 0 1 5 12 9 9 6 7 7 8 7 7 6 7 8 6 7 9 11 12 8 6 7 8 8 10 14 20 16 13
4 4 4 4 4 5 5 5 6 6 6 6 6 0 -0 -0 0 0 4 9 9 8 8 8 7 8 8 7 7 7 7 8 7 6 10 11 11 6 6 6 7 9 11 9 13 11 14
4 4 4 5 4 5 5 5 5 6 6 6 3 1 1 0 -1 2 6 9 8 6 7 7 9 8 9 8 8 8 8 6 7 6 5 8 12 7 7 6 6 7 7 12 13 18 18
5 5 5 5 5 5 5 5 6 6 6 6 3 5 1 1 1 4 8 7 8 7 6 8 8 8 8 8 8 8 8 6 6 6 5 7 9 10 7 8 9 9 10 10 12 12 17
5 5 5 5 5 5 5 6 6 6 7 6 3 7 2 2 5 5 7 7 9 8 6 6 6 7 8 8 9 9 9 7 5 5 8 6 9 12 10 6 6 7 9 10 17 15 13
5 5 5 5 5 5 5 6 6 6 6 6 6 5 2 3 8 7 7 8 7 8 7 7 7 7 6 8 10 8 8 6 5 6 8 7 10 14 12 8 7 9 8 9 9 11 15
5 5 5 6 6 6 6 6 6 6 6 5 5 8 5 4 5 7 8 8 9 7 7 7 7 6 7 8 7 9 8 6 5 5 5 6 10 12 15 12 9 10 9 8 10 16 15
6 6 6 6 6 6 6 6 6 6 6 5 5 7 6 9 8 7 7 7 8 8 7 6 7 7 7 9 9 9 7 7 6 5 5 8 13 10 9 9 9 9 9 9 10 10 13
6 6 6 6 6 7 6 6 6 6 6 5 7 8 7 8 7 7 8 7 8 8 7 8 8 7 7 8 8 9 8 8 8 6 7 7 12 11 12 9 9 10 9 9 9 8 9
6 6 6 6 6 6 6 6 6 6 6 6 6 5 7 8 8 8 8 7 8 7 7 6 7 7 7 7 6 6 5 5 6 8 8 9 11 14 16 11 10 14 10 9 8 7 8
6 6 6 6 6 6 6 6 6 6 5 5 5 7 8 10 8 8 8 7 8 8 8 7 6 7 6 4 5 5 6 6 6 6 6 9 11 13 16 13 20 10 6 7 8 7 7
6 6 6 6 6 6 6 6 6 5 5 5 5 6 8 10 8 9 8 8 7 7 7 7 6 5 4 6 9 10 8 8 7 6 7 7 10 15 17 17 12 10 8 8 9 9 6
5 5 6 6 6 6 6 6 5 5 5 5 4 4 7 11 10 8 8 8 9 8 7 7 5 4 5 7 9 13 13 11 11 9 6 7 7 13 15 19 19 11 7 5 6 12 7
6 5 5 6 6 6 6 6 6 5 5 5 5 2 5 10 7 7 8 8 6 7 8 7 7 7 5 9 12 13 12 8 12 11 10 11 12 15 16 17 13 7 6 6 14 11 6
4 4 5 5 5 6 6 5 5 5 5 5 5 3 6 8 8 6 6 7 7 7 9 7 9 7 7 10 10 9 11 10 11 9 9 11 13 14 14 16 17 6 8 11 8 6 5
4 4 4 4 4 4 4 4 4 4 4 4 7 4 4 7 7 4 5 4 5 5 7 8 8 7 7 8 8 9 10 10 10 13 6 11 9 11 11 11 7 5 6 4 4 6 5